Regional Weather Roundup
Issued by NWS Green Bay, WI

Home | Current Version | Previous Version | Graphics & Text | Print | Product List | Glossary Off
Versions: 1 2 3 4 5 6 7 8 9 10 11 12 13 14 15 16 17 18 19 20 21 22 23 24 25 26 27 28 29 30 31 32 33 34 35 36 37 38 39 40 41 42 43 44 45 46 47 48 49 50

000
ASUS43 KGRB 220010
RWRGRB

NORTH-CENTRAL AND NORTHEAST WISCONSIN REGIONAL WEATHER ROUNDUP
NATIONAL WEATHER SERVICE GREEN BAY WI
700 PM CDT TUE OCT 21 2014

WIZ005-009-010>012-018-019-220100-
NORTH CENTRAL WISCONSIN

CITY           SKY/WX    TMP DP  RH WIND       PRES   REMARKS
IRONWOOD       CLEAR     39  36  87 SE3       30.20F
MANITOWISH WTR CLEAR     35  35  99 CALM      30.22S
ARBOR VITAE    CLEAR     39  35  84 CALM      30.23R
EAGLE RIVER    CLEAR     35  34  96 CALM      30.22S
LAND O LAKES   CLEAR     34  32  92 CALM      30.24R
RHINELANDER    CLEAR     39  33  79 CALM      30.23S
PHILLIPS       CLEAR     40  34  78 E3        30.21S
ANTIGO         CLEAR     42  34  74 SE5       30.23R
TOMAHAWK       CLEAR     36  33  88 CALM      30.23S
MERRILL        CLEAR     40  35  81 CALM      30.23R
$$

WIZ013-073-220100-
NORTHEAST WISCONSIN

CITY           SKY/WX    TMP DP  RH WIND       PRES   REMARKS
IRON MOUNTAIN  CLEAR     43  27  53 E7        30.24R
MARINETTE      CLEAR     45  30  57 E6        30.25R
OCONTO         CLEAR     38  36  91 CALM      30.26R
$$

WIZ017-030-035>037-045-220100-
CENTRAL WISCONSIN

CITY           SKY/WX    TMP DP  RH WIND       PRES   REMARKS
MEDFORD        CLEAR     43  34  71 SE5       30.21S
WAUSAU         CLEAR     45  35  68 E3        30.22R
MOSINEE        CLEAR     46  34  61 CALM      30.23S
MARSHFIELD     CLEAR     46  35  65 SE3       30.22S
WISC RAPIDS    CLEAR     40  36  86 CALM      30.24S
STEVENS POINT  CLEAR     40  35  81 CALM      30.23S
WAUPACA        CLEAR     44  35  69 CALM      30.24S
SHAWANO        CLEAR     45  35  66 CALM      30.25R
CLINTONVILLE   CLEAR     43  34  70 CALM      30.24S
$$

WIZ038-039-048-051-220100-
FOX VALLEY

CITY           SKY/WX    TMP DP  RH WIND       PRES   REMARKS
NWS GREEN BAY  CLEAR     42  36  79 N3        30.25R
APPLETON       CLEAR     46  30  53 VRB5      30.25R
OSHKOSH        CLEAR     46  31  55 E5        30.24S
FOND DU LAC    CLEAR     43  33  68 NE5       30.25R
$$

WIZ022-050-052-220100-
EAST CENTRAL WISCONSIN

CITY           SKY/WX    TMP DP  RH WIND       PRES   REMARKS
STURGEON BAY   CLEAR     45  28  53 NE5       30.26R
MANITOWOC      CLEAR     44  38  79 CALM      30.26R
SHEBOYGAN      CLEAR     39  35  86 NE5       30.25R
$$

LMZ563-521-522-541>543-220100-
LAKESHORE

STATION/POSITION TIME  TEMP    WIND        PRES    VSBY  WAVE
                       AIR SEA DIR/SP/G                  HT/PER
                 (UTC) (F)     (DEG/KT/KT) (MB)    (MI)  (FT/S)
SHEBOYGAN LKSHOR 0000   47 50   30/ 15/ 17 1024.9R
KEWAUNEE LKSHORE 0000   48      40/  7/ 10 1023.4R
NORTHPORT PIER   0000   47     360/ 11/ 14 1024.7R
N MID LAKE BUOY  0000   48 51   40/ 12/ 14 1025.0R         1/ 3
STURGEON BAY CG  0000   43 48  360/  4     1024.3   3 1/2  2
CHAMBERS ISLAND  0000   49      30/ 12/ 15 1024.4S
MENOMINEE LKSHOR 0000   49      40/ 12/ 13 1024.8S
$$



USA.gov is the U.S. government's official web portal to all federal, state and local government web resources and services.